FW7718 Weather Reports


Display with metric or nautical units.
time (UTC)temp
F
wind
direction
speed
MPH
gust
MPH
rain 1hr
in
rain 24hr
in
rain mn
in
humidity
%
barometer
mb
20260505124446 71 197 9.0 10.0 0.00 0.00 0.00 85 1006.3
20260505123942 71 181 9.0 11.0 0.00 0.00 0.00 85 1006.5
20260505123439 71 211 11.0 14.0 0.00 0.00 0.00 84 1006.4
20260505122935 71 196 12.0 14.0 0.00 0.00 0.00 84 1006.3
20260505122432 71 195 11.0 13.0 0.00 0.00 0.00 84 1006.3
20260505121929 71 222 9.0 9.0 0.00 0.00 0.00 84 1006.3
20260505121426 71 209 10.0 11.0 0.00 0.00 0.00 84 1006.0
20260505120921 71 212 13.0 16.0 0.00 0.00 0.00 84 1006.1
20260505120418 71 207 13.0 16.0 0.00 0.00 0.00 84 1006.1
20260505115917 71 203 11.0 13.0 0.00 0.00 0.00 84 1006.0
20260505115414 71 209 11.0 11.0 0.00 0.00 0.00 85 1006.2
20260505114912 71 194 9.0 10.0 0.00 0.00 0.00 84 1006.1
20260505114408 71 198 11.0 13.0 0.00 0.00 0.00 85 1006.0
20260505113904 70 217 9.0 11.0 0.00 0.00 0.00 85 1005.9
20260505113401 70 190 7.0 9.0 0.00 0.00 0.00 85 1006.0
20260505112857 70 205 11.0 14.0 0.00 0.00 0.00 85 1005.8
20260505112355 70 218 9.0 11.0 0.00 0.00 0.00 85 1005.6
20260505111850 70 215 14.0 17.0 0.00 0.00 0.00 84 1005.7
20260505111346 70 197 9.0 11.0 0.00 0.00 0.00 84 1005.7
20260505110842 70 180 12.0 15.0 0.00 0.00 0.00 84 1005.6
20260505110340 70 211 14.0 16.0 0.00 0.00 0.00 84 1005.6
20260505101814 71 204 14.0 16.0 0.00 0.00 0.00 84 1005.9
20260505101311 71 217 17.0 21.0 0.00 0.00 0.00 84 1006.0
20260505100807 71 212 15.0 18.0 0.00 0.00 0.00 84 1005.9
20260505100304 71 216 10.0 15.0 0.00 0.00 0.00 84 1006.0
20260505095759 71 203 9.0 10.0 0.00 0.00 0.00 84 1006.0
20260505095257 71 206 9.0 13.0 0.00 0.00 0.00 84 1006.1
20260505094752 71 192 12.0 15.0 0.00 0.00 0.00 84 1006.0
20260505094249 71 209 12.0 13.0 0.00 0.00 0.00 84 1006.2
20260505093745 71 195 9.0 10.0 0.00 0.00 0.00 84 1006.3
20260505093243 71 229 11.0 14.0 0.00 0.00 0.00 84 1006.1
20260505092739 71 219 13.0 14.0 0.00 0.00 0.00 84 1006.3
20260505092238 71 207 11.0 14.0 0.00 0.00 0.00 84 1006.3
20260505091734 71 221 12.0 15.0 0.00 0.00 0.00 84 1006.3
20260505091233 71 219 12.0 15.0 0.00 0.00 0.00 84 1006.4
20260505090730 71 194 12.0 17.0 0.00 0.00 0.00 84 1006.3
20260505090228 71 215 13.0 16.0 0.00 0.00 0.00 84 1006.1
20260505085725 70 209 16.0 18.0 0.00 0.00 0.00 84 1006.2
20260505085223 70 200 15.0 17.0 0.00 0.00 0.00 84 1006.3
20260505084720 70 215 17.0 20.0 0.00 0.00 0.00 84 1006.2
20260505084220 70 197 12.0 15.0 0.00 0.00 0.00 84 1006.1
20260505083716 70 181 11.0 14.0 0.00 0.00 0.00 84 1006.0
20260505083213 70 202 15.0 17.0 0.00 0.00 0.00 84 1006.0
20260505082708 70 217 10.0 13.0 0.00 0.00 0.00 84 1006.0
20260505082206 70 199 9.0 11.0 0.00 0.00 0.00 83 1006.2
20260505081701 70 200 16.0 18.0 0.00 0.00 0.00 84 1006.1
20260505081159 70 224 9.0 11.0 0.00 0.00 0.00 84 1006.2
20260505080656 70 216 12.0 14.0 0.00 0.00 0.00 83 1006.3
20260505080152 70 197 19.0 21.0 0.00 0.00 0.00 83 1006.4
20260505075648 70 202 12.0 16.0 0.00 0.00 0.00 83 1006.8
20260505075145 70 187 12.0 14.0 0.00 0.00 0.00 83 1006.6
20260505074643 70 212 10.0 11.0 0.00 0.00 0.00 83 1006.6
20260505074139 70 189 12.0 14.0 0.00 0.00 0.00 83 1006.7
20260505073637 70 237 12.0 15.0 0.00 0.00 0.00 82 1006.6
20260505073135 70 229 10.0 13.0 0.00 0.00 0.00 82 1006.8
20260505072630 70 210 11.0 13.0 0.00 0.00 0.00 82 1006.8
20260505072127 71 200 12.0 14.0 0.00 0.00 0.00 81 1006.7
20260505071622 71 217 12.0 14.0 0.00 0.00 0.00 81 1007.0
20260505071120 71 200 12.0 13.0 0.00 0.00 0.00 81 1007.1
20260505070617 71 203 11.0 13.0 0.00 0.00 0.00 81 1006.8
20260505070113 71 202 10.0 14.0 0.00 0.00 0.00 81 1007.0
20260505065610 71 217 10.0 11.0 0.00 0.00 0.00 81 1007.0
20260505065106 71 207 10.0 13.0 0.00 0.00 0.00 80 1007.1
20260505064603 71 196 14.0 16.0 0.00 0.00 0.00 80 1006.8
20260505064102 71 207 15.0 20.0 0.00 0.00 0.00 80 1007.1
20260505063558 71 212 15.0 18.0 0.00 0.00 0.00 80 1007.0
20260505063054 71 215 9.0 11.0 0.00 0.00 0.00 79 1007.1
20260505062551 71 185 11.0 13.0 0.00 0.00 0.00 79 1007.2
20260505062049 71 213 14.0 16.0 0.00 0.00 0.00 79 1007.3
20260505061546 71 191 14.0 15.0 0.00 0.00 0.00 78 1007.3
20260505061044 71 223 14.0 18.0 0.00 0.00 0.00 78 1007.2
20260505060541 71 193 13.0 15.0 0.00 0.00 0.00 78 1007.3
20260505060038 72 210 14.0 16.0 0.00 0.00 0.00 78 1007.3
20260505055533 72 161 13.0 17.0 0.00 0.00 0.00 77 1007.3
20260505055030 72 138 12.0 14.0 0.00 0.00 0.00 77 1007.4
20260505054527 72 188 15.0 20.0 0.00 0.00 0.00 77 1007.5
20260505054025 72 205 16.0 17.0 0.00 0.00 0.00 77 1007.5
20260505053522 72 210 11.0 14.0 0.00 0.00 0.00 76 1007.3
20260505053019 72 193 15.0 17.0 0.00 0.00 0.00 76 1007.5
20260505052516 72 174 9.0 11.0 0.00 0.00 0.00 76 1007.4
20260505052013 72 198 10.0 13.0 0.00 0.00 0.00 75 1007.6
20260505051504 72 190 14.0 17.0 0.00 0.00 0.00 75 1007.7
20260505051003 72 202 11.0 16.0 0.00 0.00 0.00 75 1007.8
20260505050500 72 222 13.0 15.0 0.00 0.00 0.00 75 1007.6
20260505041428 71 174 9.0 10.0 0.00 0.00 0.00 74 1008.3
20260505040925 71 161 7.0 9.0 0.00 0.00 0.00 74 1008.2
20260505040423 71 199 8.0 9.0 0.00 0.00 0.00 74 1008.1
20260505035919 71 195 9.0 9.0 0.00 0.00 0.00 74 1008.2
20260505035415 71 174 8.0 9.0 0.00 0.00 0.00 74 1007.9
20260505034913 71 192 7.0 8.0 0.00 0.00 0.00 73 1008.0
20260505034409 72 163 5.0 7.0 0.00 0.00 0.00 73 1007.9
20260505033906 72 185 7.0 7.0 0.00 0.00 0.00 72 1008.3
20260505033403 72 176 7.0 9.0 0.00 0.00 0.00 72 1008.4
20260505032901 72 180 9.0 11.0 0.00 0.00 0.00 71 1008.1
20260505032357 72 193 9.0 10.0 0.00 0.00 0.00 71 1008.2
20260505031854 72 172 7.0 9.0 0.00 0.00 0.00 71 1008.3
20260505031351 72 199 14.0 16.0 0.00 0.00 0.00 70 1008.2
20260505030849 73 193 7.0 9.0 0.00 0.00 0.00 70 1008.3
20260505030344 73 192 8.0 9.0 0.00 0.00 0.00 69 1008.1
20260505025840 73 186 10.0 13.0 0.00 0.00 0.00 69 1008.2
20260505025337 73 190 7.0 9.0 0.00 0.00 0.00 69 1008.0
20260505024836 73 189 8.0 9.0 0.00 0.00 0.00 69 1008.2
20260505024333 73 139 9.0 11.0 0.00 0.00 0.00 69 1008.2
20260505023830 73 172 11.0 13.0 0.00 0.00 0.00 69 1007.9
20260505023327 73 187 11.0 13.0 0.00 0.00 0.00 68 1008.2
20260505022825 73 165 12.0 14.0 0.00 0.00 0.00 68 1008.2
20260505022321 73 183 10.0 13.0 0.00 0.00 0.00 68 1007.9
20260505021819 73 197 10.0 11.0 0.00 0.00 0.00 68 1007.8
20260505021315 73 211 8.0 10.0 0.00 0.00 0.00 68 1008.1
20260505020811 73 179 11.0 13.0 0.00 0.00 0.00 67 1008.0
20260505020307 73 166 11.0 13.0 0.00 0.00 0.00 67 1007.7
20260505015804 73 207 10.0 13.0 0.00 0.00 0.00 67 1008.0
20260505015301 73 183 10.0 11.0 0.00 0.00 0.00 67 1007.8
20260505014758 74 203 9.0 11.0 0.00 0.00 0.00 67 1008.0
20260505014255 74 186 11.0 13.0 0.00 0.00 0.00 67 1007.9
20260505013751 74 196 8.0 10.0 0.00 0.00 0.00 66 1007.9
20260505013248 74 199 10.0 11.0 0.00 0.00 0.00 67 1008.1
20260505012747 74 203 9.0 9.0 0.00 0.00 0.00 66 1007.8
20260505012244 74 193 10.0 13.0 0.00 0.00 0.00 65 1007.8
20260505011739 74 182 9.0 10.0 0.00 0.00 0.00 65 1007.9
20260505011236 75 176 7.0 9.0 0.00 0.00 0.00 65 1008.0
20260505010732 75 192 7.0 9.0 0.00 0.00 0.00 64 1008.2
20260505010228 75 202 8.0 10.0 0.00 0.00 0.00 63 1008.0
20260505005725 75 190 7.0 8.0 0.00 0.00 0.00 63 1007.9
20260505005222 76 175 12.0 14.0 0.00 0.00 0.00 62 1007.8
20260505004719 76 202 8.0 9.0 0.00 0.00 0.00 62 1008.1
20260505004216 76 202 11.0 13.0 0.00 0.00 0.00 61 1008.0
20260505003713 76 189 12.0 16.0 0.00 0.00 0.00 61 1007.9
20260505003211 76 206 12.0 14.0 0.00 0.00 0.00 60 1008.0
20260505002706 77 196 12.0 15.0 0.00 0.00 0.00 60 1008.0
20260505002204 77 207 9.0 14.0 0.00 0.00 0.00 60 1008.0
20260505001701 77 198 8.0 10.0 0.00 0.00 0.00 59 1007.9
20260505001159 77 185 11.0 13.0 0.00 0.00 0.00 59 1007.8
20260505000656 77 203 10.0 16.0 0.00 0.00 0.00 58 1007.9
20260505000154 77 200 11.0 16.0 0.00 0.00 0.00 58 1008.1
20260504235650 77 190 9.0 10.0 0.00 0.00 0.00 58 1008.2
20260504235147 77 185 7.0 9.0 0.00 0.00 0.00 58 1008.0
20260504234645 78 198 13.0 15.0 0.00 0.00 0.00 56 1008.3
20260504234142 78 181 13.0 16.0 0.00 0.00 0.00 56 1008.3
20260504233637 78 186 9.0 11.0 0.00 0.00 0.00 56 1008.2
20260504233133 78 207 12.0 14.0 0.00 0.00 0.00 55 1008.2
20260504232631 78 189 14.0 17.0 0.00 0.00 0.00 55 1008.4
20260504232127 78 174 10.0 10.0 0.00 0.00 0.00 55 1008.3
20260504231625 79 183 13.0 16.0 0.00 0.00 0.00 53 1008.3
20260504231121 79 190 9.0 10.0 0.00 0.00 0.00 54 1008.4
20260504230617 80 205 17.0 23.0 0.00 0.00 0.00 52 1008.9
20260504230116 79 159 14.0 18.0 0.00 0.00 0.00 52 1008.8
20260504225614 79 198 14.0 17.0 0.00 0.00 0.00 52 1008.6
20260504225110 80 174 10.0 14.0 0.00 0.00 0.00 52 1008.5
20260504224607 80 160 11.0 11.0 0.00 0.00 0.00 52 1008.6
20260504224104 80 190 13.0 15.0 0.00 0.00 0.00 51 1008.8
20260504223601 80 174 11.0 16.0 0.00 0.00 0.00 52 1008.7
20260504223056 80 180 15.0 17.0 0.00 0.00 0.00 51 1008.7
20260504222553 80 212 12.0 14.0 0.00 0.00 0.00 51 1008.8
20260504222050 80 165 13.0 16.0 0.00 0.00 0.00 50 1008.9
20260504221547 80 218 14.0 18.0 0.00 0.00 0.00 50 1009.0
20260504221044 80 189 17.0 20.0 0.00 0.00 0.00 48 1009.0
20260504220541 80 207 17.0 21.0 0.00 0.00 0.00 49 1009.1
20260504220038 80 218 12.0 15.0 0.00 0.00 0.00 49 1009.1
20260504215534 80 203 10.0 13.0 0.00 0.00 0.00 49 1009.2
20260504215032 80 192 15.0 18.0 0.00 0.00 0.00 48 1009.0
20260504214528 80 157 12.0 16.0 0.00 0.00 0.00 50 1009.3
20260504214024 79 184 17.0 20.0 0.00 0.00 0.00 48 1009.3
20260504213521 80 197 15.0 21.0 0.00 0.00 0.00 48 1009.5
20260504213018 80 196 15.0 18.0 0.00 0.00 0.00 48 1009.5
20260504212514 80 195 11.0 15.0 0.00 0.00 0.00 49 1009.9
20260504212011 80 191 14.0 15.0 0.00 0.00 0.00 47 1009.7
20260504211508 80 162 16.0 17.0 0.00 0.00 0.00 46 1009.9
20260504211006 80 197 17.0 22.0 0.00 0.00 0.00 46 1009.8
20260504210502 81 186 17.0 20.0 0.00 0.00 0.00 45 1009.9
20260504205959 80 205 14.0 18.0 0.00 0.00 0.00 45 1010.1
20260504205457 80 201 17.0 22.0 0.00 0.00 0.00 46 1010.0
20260504204955 80 174 18.0 20.0 0.00 0.00 0.00 45 1010.1
20260504204453 80 185 17.0 21.0 0.00 0.00 0.00 45 1010.4
20260504203952 80 217 15.0 18.0 0.00 0.00 0.00 44 1010.5
20260504203450 80 196 17.0 20.0 0.00 0.00 0.00 45 1010.6
20260504202945 80 193 15.0 17.0 0.00 0.00 0.00 45 1010.6
20260504202441 80 203 15.0 18.0 0.00 0.00 0.00 45 1010.7
20260504201938 80 168 16.0 18.0 0.00 0.00 0.00 45 1011.1
20260504201435 79 188 13.0 15.0 0.00 0.00 0.00 46 1011.0
20260504200933 79 202 12.0 14.0 0.00 0.00 0.00 46 1011.1
20260504200430 79 214 11.0 13.0 0.00 0.00 0.00 47 1011.4
20260504195926 79 205 11.0 15.0 0.00 0.00 0.00 47 1011.5
20260504195422 79 200 11.0 13.0 0.00 0.00 0.00 46 1011.5
20260504194919 78 135 10.0 13.0 0.00 0.00 0.00 47 1011.7
20260504194415 79 193 19.0 21.0 0.00 0.00 0.00 45 1011.4
20260504193911 78 194 14.0 20.0 0.00 0.00 0.00 46 1011.5
20260504193408 78 207 16.0 18.0 0.00 0.00 0.00 46 1011.7
20260504192907 79 186 11.0 13.0 0.00 0.00 0.00 46 1012.1
20260504192404 79 203 19.0 22.0 0.00 0.00 0.00 44 1011.9
20260504191903 79 159 10.0 13.0 0.00 0.00 0.00 45 1012.3
20260504191400 78 187 9.0 11.0 0.00 0.00 0.00 48 1012.2
20260504190855 79 196 13.0 16.0 0.00 0.00 0.00 45 1012.3
20260504190351 78 159 9.0 11.0 0.00 0.00 0.00 47 1012.1
20260504185848 78 194 8.0 9.0 0.00 0.00 0.00 48 1012.2
20260504185345 77 197 16.0 18.0 0.00 0.00 0.00 47 1012.3
20260504184841 77 190 15.0 17.0 0.00 0.00 0.00 48 1012.5
20260504184337 77 194 16.0 21.0 0.00 0.00 0.00 47 1012.4
20260504183833 78 183 17.0 21.0 0.00 0.00 0.00 45 1012.6
20260504183331 77 204 11.0 14.0 0.00 0.00 0.00 46 1012.7
20260504182828 77 195 15.0 20.0 0.00 0.00 0.00 45 1012.9
20260504182326 77 176 9.0 10.0 0.00 0.00 0.00 49 1012.9
20260504181822 77 229 13.0 17.0 0.00 0.00 0.00 47 1013.1
20260504181320 77 170 11.0 14.0 0.00 0.00 0.00 48 1013.2
20260504180819 77 190 14.0 18.0 0.00 0.00 0.00 46 1013.1
20260504180317 76 207 9.0 11.0 0.00 0.00 0.00 49 1013.0
20260504175815 76 190 14.0 16.0 0.00 0.00 0.00 47 1013.3
20260504175311 76 204 9.0 15.0 0.00 0.00 0.00 50 1013.4
20260504174809 76 193 18.0 22.0 0.00 0.00 0.00 46 1013.7
20260504174306 76 208 14.0 17.0 0.00 0.00 0.00 46 1013.5
20260504173803 76 167 12.0 16.0 0.00 0.00 0.00 47 1013.7
20260504173300 75 175 12.0 15.0 0.00 0.00 0.00 49 1013.5
20260504172756 74 202 11.0 14.0 0.00 0.00 0.00 49 1014.0
20260504172253 75 215 12.0 14.0 0.00 0.00 0.00 50 1013.9
20260504171749 74 211 16.0 18.0 0.00 0.00 0.00 48 1014.1
20260504171247 74 174 16.0 18.0 0.00 0.00 0.00 49 1014.3
20260504170743 74 202 13.0 15.0 0.00 0.00 0.00 50 1014.3
20260504170241 75 220 16.0 21.0 0.00 0.00 0.00 48 1014.4
20260504160159 72 201 14.0 16.0 0.00 0.00 0.00 52 1014.6
20260504151127 70 221 15.0 18.0 0.00 0.00 0.00 58 1015.1
20260504150624 69 207 13.0 15.0 0.00 0.00 0.00 62 1015.2
20260504150121 69 208 10.0 11.0 0.00 0.00 0.00 61 1015.4
20260504141050 65 212 9.0 11.0 0.00 0.00 0.00 73 1015.6
20260504140546 65 194 13.0 15.0 0.00 0.00 0.00 71 1015.4
20260504130511 61 221 8.0 10.0 0.00 0.00 0.00 78 1015.6